Ann Arbor, MI

9:01 AM EST on January 19, 2018 (GMT -0500)
Ann Arbor Municipal

Weather History for KARB - November, 2014

Change the Weather History Date:

Monday, November 24, 2014

  Actual Average Record
Temperature  
Mean Temperature 46 °F -  
Max Temperature 57 °F 43 °F 64 °F (2001)
Min Temperature 34 °F 29 °F 10 °F (2005)
Degree Days  
Heating Degree Days 20    
Moisture  
Dew Point 43 °F    
Average Humidity 81    
Maximum Humidity 93    
Minimum Humidity 67    
Precipitation  
Precipitation 0.45 in - - ()
Sea Level Pressure  
Sea Level Pressure 29.25 in    
Wind  
Wind Speed 17 mph (SW)    
Max Wind Speed 36 mph    
Max Gust Speed 50 mph    
Visibility 9 miles    
Events Rain    
Averages and records for this station are not official NWS values.
T = Trace of Precipitation, MM = Missing Value Source: NWS Daily Summary

Daily Weather History Graph

Daily Weather History Graph

Search for Another Location

Airport or City:

Trip Planner

Search our weather history database for the weather conditions in past years. The results will help you decide how hot, cold, wet, or windy it might be!

Date:

Astronomy

Nov. 24, 2014 Rise Set
Actual Time 7:36 AM EST 5:06 PM EST
Civil Twilight 7:05 AM EST 5:37 PM EST
Nautical Twilight 6:31 AM EST 6:12 PM EST
Astronomical Twilight 5:57 AM EST 6:45 PM EST
Moon 9:27 AM EST (11/24) 7:27 PM EST (11/24)
Length of Visible Light 10h 32m
Length of Day
9h 30m
Waxing Crescent, 6% of the Moon is Illuminated
Nov 24
Waxing Crescent
Nov 29
First Quarter
Dec 6
Full
Dec 14
Last Quarter
Dec 21
New

Hourly Weather History & Observations

Time (EST) Temp. Windchill Dew Point Humidity Pressure Visibility Wind Dir Wind Speed Gust Speed Precip Events Conditions
12:53 AM 52.0 °F - 50.0 °F 93% 29.15 in 6.0 mi SSE 8.1 mph - 0.19 in Rain Rain
1:31 AM 55.0 °F - 52.0 °F 89% 29.11 in 3.0 mi South 12.7 mph - 0.06 in Rain Light Rain
1:53 AM 55.0 °F - 52.0 °F 89% 29.09 in 5.0 mi South 15.0 mph 27.6 mph 0.07 in Rain Light Rain
2:37 AM 55.9 °F - 53.1 °F 90% 29.06 in 6.0 mi South 17.3 mph 26.5 mph 0.07 in Rain Light Rain
2:53 AM 55.9 °F - 53.1 °F 90% 29.05 in 7.0 mi SSW 16.1 mph 27.6 mph 0.08 in Rain Light Rain
3:53 AM 55.9 °F - 53.1 °F 90% 29.06 in 10.0 mi SSW 18.4 mph 25.3 mph 0.06 in Rain Light Rain
4:04 AM 55.9 °F - 53.1 °F 90% 29.06 in 7.0 mi SW 18.4 mph 26.5 mph 0.00 in Rain Light Rain
4:33 AM 55.9 °F - 52.0 °F 87% 29.09 in 10.0 mi SW 17.3 mph 25.3 mph 0.00 in   Overcast
4:53 AM 55.9 °F - 52.0 °F 87% 29.10 in 10.0 mi SW 18.4 mph 27.6 mph 0.00 in Rain Light Rain
5:11 AM 55.0 °F - 52.0 °F 89% 29.11 in 10.0 mi SW 18.4 mph 26.5 mph 0.01 in Rain Light Rain
5:53 AM 54.0 °F - 51.1 °F 90% 29.13 in 7.0 mi SW 16.1 mph 25.3 mph 0.02 in Rain Light Rain
6:53 AM 54.0 °F - 51.1 °F 90% 29.14 in 10.0 mi SW 13.8 mph - 0.00 in   Overcast
7:53 AM 55.0 °F - 52.0 °F 89% 29.13 in 10.0 mi SW 12.7 mph 20.7 mph N/A   Overcast
8:46 AM 55.0 °F - 52.0 °F 89% 29.13 in 10.0 mi SSW 13.8 mph - 0.00 in Rain Light Rain
8:53 AM 55.0 °F - 52.0 °F 89% 29.13 in 10.0 mi SSW 11.5 mph - 0.00 in   Overcast
9:53 AM 55.0 °F - 50.0 °F 83% 29.11 in 10.0 mi SSW 16.1 mph 25.3 mph 0.02 in Rain Light Rain
10:53 AM 55.0 °F - 50.0 °F 83% 29.12 in 10.0 mi SSW 10.4 mph - 0.00 in   Overcast
11:09 AM 54.0 °F - 51.1 °F 90% 29.12 in 10.0 mi SSW 15.0 mph 20.7 mph 0.00 in   Overcast
11:48 AM 57.2 °F - 50.0 °F 77% 29.11 in 10.0 mi SW 17.3 mph 29.9 mph 0.01 in   Overcast
11:53 AM 57.0 °F - 50.0 °F 77% 29.11 in 10.0 mi SW 25.3 mph 34.5 mph 0.01 in   Overcast
12:03 PM 57.9 °F - 48.9 °F 72% 29.11 in 10.0 mi SW 25.3 mph 40.3 mph N/A   Mostly Cloudy
12:53 PM 51.1 °F - 41.0 °F 68% 29.18 in 10.0 mi SW 31.1 mph 47.2 mph N/A   Mostly Cloudy
1:05 PM 48.9 °F - 39.0 °F 69% 29.20 in 10.0 mi SW 35.7 mph 49.5 mph N/A   Mostly Cloudy
1:53 PM 45.0 °F 35.6 °F 35.1 °F 68% 29.27 in 10.0 mi SW 27.6 mph 47.2 mph N/A   Overcast
2:53 PM 42.1 °F 32.1 °F 32.0 °F 67% 29.35 in 10.0 mi WSW 25.3 mph 43.7 mph N/A   Overcast
3:53 PM 39.0 °F 28.8 °F 30.9 °F 73% 29.43 in 10.0 mi WSW 21.9 mph 36.8 mph N/A   Overcast
4:53 PM 39.0 °F 27.0 °F 30.0 °F 70% 29.48 in 10.0 mi WSW 31.1 mph 46.0 mph N/A   Overcast
5:53 PM 37.9 °F 27.3 °F 30.0 °F 73% 29.52 in 10.0 mi SW 21.9 mph 36.8 mph N/A   Overcast
6:53 PM 37.0 °F 25.4 °F 28.0 °F 70% 29.57 in 10.0 mi SW 25.3 mph 35.7 mph N/A   Overcast
7:53 PM 36.0 °F 24.4 °F 26.1 °F 67% 29.60 in 10.0 mi WSW 23.0 mph 40.3 mph N/A   Overcast
8:53 PM 35.1 °F 23.0 °F 27.0 °F 72% 29.64 in 10.0 mi SW 24.2 mph 32.2 mph N/A   Overcast
9:53 PM 34.0 °F 24.2 °F 26.1 °F 73% 29.67 in 10.0 mi WSW 15.0 mph 36.8 mph N/A   Overcast
10:53 PM 34.0 °F 21.5 °F 26.1 °F 73% 29.69 in 10.0 mi WSW 24.2 mph 36.8 mph N/A   Overcast
11:53 PM 34.0 °F 20.5 °F 26.1 °F 73% 29.72 in 10.0 mi WSW 28.8 mph 39.1 mph N/A   Overcast